Location: Bassano
(45.7667°N, 11.7333°E)
Time: 02:06:42
(UTC+00:00)

BREEZE-M DEB (TANK) - Pass Details

Date: 07 June 2020
Orbit: 324 x 12054 km, 49.6° (Epoch: 06 July)

Event Time Altitude Azimuth Distance (km) Brightness Sun altitude
Rises 01:23:58 0° 287° (WNW) 2,362 5.2 -15.2°
Reaches altitude 10° 01:26:06 10° 297° (WNW) 1,286 4.0 -15.0°
Maximum altitude 01:28:22 39° 11° (N) 513 2.5 -14.8°
Drops below altitude 10° 01:30:57 10° 84° (E) 1,478 4.9 -14.5°
Sets 01:33:38 0° 92° (E) 2,824 6.2 -14.3°
